Flag for U.S.A. Weather past 2 weeks in Midland, Texas, U.S.A.

Now
83 °F

Sunny.


Feels Like: 81 °F
Forecast: 59 / 90 °F
Wind: 6 mph from Northwest

Location: Midland - Midland Airpark

Current Time: May 25, 2015 at 7:33:00 PM

Latest Report: May 25, 2015 at 6:55 PM


Visibility: 10 mi

Pressure: 29.84 "Hg

Humidity: 23%

Dew point: 41 °F

Location of MidlandLocation

Historic Weather in Midland — Graph

°F

Midland temperature yesterday

Maximum temperature yesterday: 85 °F (at 3:55 PM)
Minimum temperature yesterday: 61 °F (at 1:55 AM)
Average temperature yesterday: 73 °F

Past Weeks' High & Low Weather Summary

 TemperatureHumidityPressure
High90 °F (May 16, 3:55 PM)100% (May 12, 8:55 AM)30.31 "Hg (May 12, 8:55 AM)
Low52 °F (May 21, 7:35 AM)9% (May 10, 6:15 PM)29.76 "Hg (May 16, 3:55 PM)
Average70 °F65%30.01 "Hg
* Reported May 10 6:15 PM — May 25 6:15 PM, Midland, Weather by CustomWeather, © 2015

Note: Actual official high and low records may vary slightly from our data, if they occured in-between our weather recording intervals... More about our weather records

Advertising

Midland weather history for previous 24 hours

 ConditionsComfort  
Time TempWeatherWind HumidityBarometerVisibility
6:15 PM
Mon, May 25
82 °FSunny.3 mph28%29.85 "Hg7 mi
5:55 PM82 °FSunny.7 mph29%29.85 "Hg10 mi
5:35 PM81 °FSunny.5 mph31%29.86 "Hg10 mi
5:15 PM81 °FSunny.8 mph30%29.87 "Hg10 mi
4:55 PM80 °FSunny.7 mph31%29.88 "Hg10 mi
4:15 PM78 °FSunny.No wind40%29.89 "Hg10 mi
3:55 PM78 °FSunny.No wind41%29.90 "Hg10 mi
3:15 PM77 °FSunny.5 mph43%29.92 "Hg10 mi
2:55 PM76 °FSunny.5 mph44%29.93 "Hg10 mi
2:35 PM76 °FSunny.6 mph46%29.93 "Hg10 mi
2:15 PM75 °FSunny.5 mph45%29.94 "Hg7 mi
1:55 PM74 °FSunny.5 mph47%29.94 "Hg10 mi
1:15 PM73 °FSunny.5 mph49%29.95 "Hg10 mi
12:55 PM74 °FSunny.5 mph50%29.95 "Hg7 mi
12:35 PM72 °FSunny.6 mph49%29.95 "Hg10 mi
12:15 PM72 °FSunny.7 mph52%29.95 "Hg7 mi
11:55 AM71 °FSunny.6 mph53%29.94 "Hg7 mi
11:35 AM69 °FSunny.3 mph56%29.94 "Hg7 mi
11:15 AM69 °FSunny.8 mph59%29.94 "Hg10 mi
10:55 AM67 °FSunny.10 mph63%29.94 "Hg10 mi
10:15 AM64 °FSunny.13 mph72%29.92 "Hg7 mi
9:55 AM61 °FSunny.8 mph81%29.92 "Hg5 mi
9:15 AM58 °FLight rain. Scattered clouds.15 mph85%29.92 "Hg10 mi
8:55 AM57 °FThundershowers. Cloudy.17 mph88%29.91 "Hg7 mi
8:15 AM56 °FStrong thunderstorms. Cloudy.16 mph87%29.92 "Hg4 mi
7:55 AM58 °FThunderstorms. Cloudy.21 mph81%29.92 "Hg10 mi
7:35 AM61 °FThunderstorms. Overcast.6 mph66%29.89 "Hg10 mi
7:15 AM70 °FThunderstorms. Mostly cloudy.10 mph83%29.86 "Hg10 mi
6:55 AM70 °FThunderstorms. Partly cloudy.3 mph84%29.84 "Hg10 mi
6:15 AM66 °FThunderstorms. Partly cloudy.8 mph79%29.84 "Hg10 mi
5:55 AM67 °FThundershowers. Mostly cloudy.8 mph78%29.85 "Hg7 mi
5:35 AM69 °FThundershowers. Mostly cloudy.5 mph77%29.85 "Hg10 mi
5:15 AM68 °FPartly cloudy.7 mph79%29.85 "Hg10 mi
4:55 AM69 °FPassing clouds.3 mph78%29.85 "Hg10 mi
4:35 AM69 °FClear.5 mph78%29.85 "Hg10 mi
4:15 AM68 °FClear.6 mph75%29.85 "Hg10 mi
3:55 AM68 °FClear.8 mph72%29.84 "Hg10 mi
3:35 AM68 °FClear.9 mph69%29.85 "Hg10 mi
3:15 AM68 °FClear.10 mph67%29.85 "Hg10 mi
2:55 AM67 °FClear.9 mph67%29.85 "Hg10 mi
2:15 AM67 °FClear.12 mph64%29.85 "Hg10 mi
1:55 AM68 °FClear.10 mph61%29.85 "Hg10 mi
1:15 AM69 °FClear.10 mph59%29.85 "Hg10 mi
12:55 AM70 °FClear.12 mph57%29.85 "Hg10 mi
12:35 AM70 °FClear.8 mph56%29.85 "Hg7 mi
12:15 AM71 °FClear.7 mph53%29.86 "Hg10 mi
11:55 PM
Sun, May 24
72 °FClear.9 mph48%29.87 "Hg5 mi
11:35 PM71 °FClear.7 mph41%29.87 "Hg10 mi
11:15 PM72 °FClear.6 mph34%29.87 "Hg7 mi
10:55 PM72 °FClear.7 mph33%29.87 "Hg7 mi
10:15 PM73 °FClear.3 mph35%29.86 "Hg7 mi
9:55 PM73 °FClear.3 mph34%29.85 "Hg10 mi
9:35 PM72 °FSunny.5 mph36%29.85 "Hg10 mi
9:15 PM74 °FSunny.6 mph31%29.84 "Hg10 mi
8:55 PM75 °FSunny.6 mph30%29.84 "Hg10 mi
8:15 PM81 °FSunny.6 mph18%29.83 "Hg10 mi
7:55 PM82 °FSunny.8 mph17%29.83 "Hg10 mi
7:35 PM83 °FSunny.9 mph15%29.83 "Hg10 mi
7:15 PM83 °FSunny.10 mph14%29.83 "Hg10 mi
Weather by CustomWeather, © 2015

See weather overviewHow to use our weather pages